Cyprus Cement — C6UP5 — position and weather

sailwx.info

Track history (hours):
 
Tides and Currents Weather Stations Pressure Air Temp Water Temp Dewpoint Dewpoint Depression Visibility Wind Speed Wind Dir Waves Ship Positions

Cyprus Cement

Last reported at 2014-Oct-25 15:33 UTC. Time now 2014-Oct-25 16:11 UTC.
Position N 63°27' E 010°25'.

Length 97 m; draft 5.8 m.

Type: Cargo ship. MMSI: 311988000.

Date/timePositionNaut miles runAvg speedWind from/ knotsBaromVisibWave heightAir tempDewpointWater temp
2014-Oct-25 15:33N 63°27' E 010°25'0 0.0
2014-Oct-25 14:33N 63°27' E 010°25'0 0.0
2014-Oct-25 13:33N 63°27' E 010°25'0 0.0
2014-Oct-25 12:33N 63°27' E 010°25'0 0.0
2014-Oct-25 11:33N 63°27' E 010°25'0 0.0
2014-Oct-25 10:33N 63°27' E 010°25'0 0.0
2014-Oct-25 09:33N 63°27' E 010°25'0 0.0
2014-Oct-25 08:33N 63°27' E 010°25'0 0.0
2014-Oct-25 07:33N 63°27' E 010°25'0 0.0
2014-Oct-25 06:33N 63°27' E 010°25'0 0.0
2014-Oct-25 05:33N 63°27' E 010°25'0 0.0
2014-Oct-25 04:33N 63°27' E 010°25'0 0.0
2014-Oct-25 03:33N 63°27' E 010°25'0 0.0
2014-Oct-25 02:33N 63°27' E 010°25'0 0.0
2014-Oct-25 01:33N 63°27' E 010°25'0 0.0
2014-Oct-25 00:33N 63°27' E 010°25'0 0.0
2014-Oct-24 23:33N 63°27' E 010°25'0 0.0
2014-Oct-24 22:33N 63°27' E 010°25'0 0.0
2014-Oct-24 21:33N 63°27' E 010°25'0 0.0
2014-Oct-24 20:33N 63°27' E 010°25'0 0.0
2014-Oct-24 19:33N 63°27' E 010°25'0 0.0
2014-Oct-24 18:33N 63°27' E 010°25'0 0.0
2014-Oct-24 17:33N 63°27' E 010°25'0 0.0
2014-Oct-24 16:33N 63°27' E 010°25'0 0.0
2014-Oct-24 15:33N 63°27' E 010°25'0 0.0
2014-Oct-24 14:33N 63°27' E 010°25'0 0.0
2014-Oct-24 13:33N 63°27' E 010°25'0 0.0
2014-Oct-24 12:33N 63°27' E 010°25'0 0.0
2014-Oct-24 11:33N 63°27' E 010°25'0 0.0
2014-Oct-24 10:33N 63°27' E 010°25'0 0.0
2014-Oct-24 09:33N 63°27' E 010°25'0 0.0
2014-Oct-24 08:33N 63°27' E 010°25'0 0.0
2014-Oct-24 07:33N 63°27' E 010°25'0 0.0
2014-Oct-24 06:33N 63°27' E 010°25'0 0.0
2014-Oct-24 05:33N 63°27' E 010°25'0 0.0
2014-Oct-24 04:33N 63°27' E 010°25'0 0.0
2014-Oct-24 03:33N 63°27' E 010°25'0 0.0
2014-Oct-24 02:33N 63°27' E 010°25'0 0.0
2014-Oct-24 01:33N 63°27' E 010°25'0 0.0
2014-Oct-24 00:33N 63°27' E 010°25'0 0.0
2014-Oct-23 23:33N 63°27' E 010°25'0 0.0
2014-Oct-23 22:33N 63°27' E 010°25'0 0.0
2014-Oct-23 21:33N 63°27' E 010°25'0 0.0
2014-Oct-23 20:33N 63°27' E 010°25'0 0.0
2014-Oct-23 19:33N 63°27' E 010°25'0 0.0
2014-Oct-23 18:33N 63°27' E 010°25'0 0.0
2014-Oct-23 17:33N 63°27' E 010°25'0 0.4
2014-Oct-23 16:33N 63°27' E 010°25'9 9.3
2014-Oct-23 15:33N 63°28' E 010°04'1010.1
2014-Oct-23 14:33N 63°35' E 009°48'9 7.7
2014-Oct-23 13:22N 63°39' E 009°29'7910.1
2014-Oct-23 05:33N 64°46' E 011°03'1110.7
2014-Oct-23 04:33N 64°54' E 011°20'1110.6
2014-Oct-23 03:33N 65°02' E 011°38'1110.6
2014-Oct-23 02:32N 65°11' E 011°51'71 3.2
2014-Oct-22 04:32N 66°17' E 012°55'1110.3
2014-Oct-22 03:29N 66°28' E 012°59'9 8.3
2014-Oct-22 02:26N 66°36' E 013°04'2010.3
2014-Oct-22 00:30N 66°54' E 013°27'2010.1
2014-Oct-21 22:29N 67°09' E 014°02'910.1
2014-Oct-21 21:33N 67°17' E 014°14'10 9.8
2014-Oct-21 20:33N 67°26' E 014°26'9 9.1
2014-Oct-21 19:33N 67°34' E 014°20'10 9.6
2014-Oct-21 18:33N 67°44' E 014°19'2 0.1
2014-Oct-20 13:32N 67°46' E 014°20'1212.1
2014-Oct-20 12:31N 67°33' E 014°20'1112.0
2014-Oct-20 11:33N 67°22' E 014°24'1212.1
2014-Oct-20 10:33N 67°12' E 014°06'1712.5
2014-Oct-20 09:13N 66°59' E 013°40'710.5
2014-Oct-20 08:33N 66°54' E 013°27'2311.4
2014-Oct-20 06:31N 66°33' E 013°02'1010.3
2014-Oct-20 05:33N 66°23' E 012°59'1511.1
2014-Oct-20 04:14N 66°09' E 012°49'6110.6
2014-Oct-19 22:31N 65°13' E 011°54'1111.5
2014-Oct-19 21:33N 65°03' E 011°44'1010.4
2014-Oct-19 20:33N 64°57' E 011°23'1111.0
2014-Oct-19 19:33N 64°48' E 011°07'7711.0
2014-Oct-19 12:31N 63°47' E 009°18'1111.5
2014-Oct-19 11:33N 63°36' E 009°16'  
2014-Oct-17 02:33N 63°38' E 009°15'1110.6
2014-Oct-17 01:32N 63°48' E 009°17'1511.0
2014-Oct-17 00:08N 64°02' E 009°31'5611.2
2014-Oct-16 19:10N 64°44' E 010°56'711.1
2014-Oct-16 18:33N 64°49' E 011°08'1110.6
2014-Oct-16 17:33N 64°57' E 011°23'1110.7
2014-Oct-16 16:33N 65°03' E 011°44'1111.2
2014-Oct-16 15:33N 65°14' E 011°54'5610.4
2014-Oct-16 10:13N 66°06' E 012°42'1311.0
2014-Oct-16 09:04N 66°17' E 012°55'611.0
2014-Oct-16 08:33N 66°23' E 012°58'1110.3
2014-Oct-16 07:30N 66°33' E 013°03'2310.6
2014-Oct-16 05:18N 66°54' E 013°27'1810.1
2014-Oct-16 03:30N 67°07' E 014°00'1010.8
2014-Oct-16 02:33N 67°16' E 014°13'1110.7
2014-Oct-16 01:34N 67°25' E 014°27'1111.0
2014-Oct-16 00:33N 67°36' E 014°17'1110.3
2014-Oct-15 23:31N 67°47' E 014°16'  
Track history (hours):
 
Tides and Currents Weather Stations Pressure Air Temp Water Temp Dewpoint Dewpoint Depression Visibility Wind Speed Wind Dir Waves Ship Positions

Cyprus Cement

Last reported at 2014-Oct-25 15:33 UTC. Time now 2014-Oct-25 16:11 UTC.
Position N 63°27' E 010°25'.

Length 97 m; draft 5.8 m.

Type: Cargo ship. MMSI: 311988000.

Date/timePositionNaut miles runAvg speedWind from/ knotsBaromVisibWave heightAir tempDewpointWater temp
2014-Oct-25 15:33N 63°27' E 010°25'0 0.0
2014-Oct-25 14:33N 63°27' E 010°25'0 0.0
2014-Oct-25 13:33N 63°27' E 010°25'0 0.0
2014-Oct-25 12:33N 63°27' E 010°25'0 0.0
2014-Oct-25 11:33N 63°27' E 010°25'0 0.0
2014-Oct-25 10:33N 63°27' E 010°25'0 0.0
2014-Oct-25 09:33N 63°27' E 010°25'0 0.0
2014-Oct-25 08:33N 63°27' E 010°25'0 0.0
2014-Oct-25 07:33N 63°27' E 010°25'0 0.0
2014-Oct-25 06:33N 63°27' E 010°25'0 0.0
2014-Oct-25 05:33N 63°27' E 010°25'0 0.0
2014-Oct-25 04:33N 63°27' E 010°25'0 0.0
2014-Oct-25 03:33N 63°27' E 010°25'0 0.0
2014-Oct-25 02:33N 63°27' E 010°25'0 0.0
2014-Oct-25 01:33N 63°27' E 010°25'0 0.0
2014-Oct-25 00:33N 63°27' E 010°25'0 0.0
2014-Oct-24 23:33N 63°27' E 010°25'0 0.0
2014-Oct-24 22:33N 63°27' E 010°25'0 0.0
2014-Oct-24 21:33N 63°27' E 010°25'0 0.0
2014-Oct-24 20:33N 63°27' E 010°25'0 0.0
2014-Oct-24 19:33N 63°27' E 010°25'0 0.0
2014-Oct-24 18:33N 63°27' E 010°25'0 0.0
2014-Oct-24 17:33N 63°27' E 010°25'0 0.0
2014-Oct-24 16:33N 63°27' E 010°25'0 0.0
2014-Oct-24 15:33N 63°27' E 010°25'0 0.0
2014-Oct-24 14:33N 63°27' E 010°25'0 0.0
2014-Oct-24 13:33N 63°27' E 010°25'0 0.0
2014-Oct-24 12:33N 63°27' E 010°25'0 0.0
2014-Oct-24 11:33N 63°27' E 010°25'0 0.0
2014-Oct-24 10:33N 63°27' E 010°25'0 0.0
2014-Oct-24 09:33N 63°27' E 010°25'0 0.0
2014-Oct-24 08:33N 63°27' E 010°25'0 0.0
2014-Oct-24 07:33N 63°27' E 010°25'0 0.0
2014-Oct-24 06:33N 63°27' E 010°25'0 0.0
2014-Oct-24 05:33N 63°27' E 010°25'0 0.0
2014-Oct-24 04:33N 63°27' E 010°25'0 0.0
2014-Oct-24 03:33N 63°27' E 010°25'0 0.0
2014-Oct-24 02:33N 63°27' E 010°25'0 0.0
2014-Oct-24 01:33N 63°27' E 010°25'0 0.0
2014-Oct-24 00:33N 63°27' E 010°25'0 0.0
2014-Oct-23 23:33N 63°27' E 010°25'0 0.0
2014-Oct-23 22:33N 63°27' E 010°25'0 0.0
2014-Oct-23 21:33N 63°27' E 010°25'0 0.0
2014-Oct-23 20:33N 63°27' E 010°25'0 0.0
2014-Oct-23 19:33N 63°27' E 010°25'0 0.0
2014-Oct-23 18:33N 63°27' E 010°25'0 0.0
2014-Oct-23 17:33N 63°27' E 010°25'0 0.4
2014-Oct-23 16:33N 63°27' E 010°25'9 9.3
2014-Oct-23 15:33N 63°28' E 010°04'1010.1
2014-Oct-23 14:33N 63°35' E 009°48'9 7.7
2014-Oct-23 13:22N 63°39' E 009°29'7910.1
2014-Oct-23 05:33N 64°46' E 011°03'1110.7
2014-Oct-23 04:33N 64°54' E 011°20'1110.6
2014-Oct-23 03:33N 65°02' E 011°38'1110.6
2014-Oct-23 02:32N 65°11' E 011°51'71 3.2
2014-Oct-22 04:32N 66°17' E 012°55'1110.3
2014-Oct-22 03:29N 66°28' E 012°59'9 8.3
2014-Oct-22 02:26N 66°36' E 013°04'2010.3
2014-Oct-22 00:30N 66°54' E 013°27'2010.1
2014-Oct-21 22:29N 67°09' E 014°02'910.1
2014-Oct-21 21:33N 67°17' E 014°14'10 9.8
2014-Oct-21 20:33N 67°26' E 014°26'9 9.1
2014-Oct-21 19:33N 67°34' E 014°20'10 9.6
2014-Oct-21 18:33N 67°44' E 014°19'2 0.1
2014-Oct-20 13:32N 67°46' E 014°20'1212.1
2014-Oct-20 12:31N 67°33' E 014°20'1112.0
2014-Oct-20 11:33N 67°22' E 014°24'1212.1
2014-Oct-20 10:33N 67°12' E 014°06'1712.5
2014-Oct-20 09:13N 66°59' E 013°40'710.5
2014-Oct-20 08:33N 66°54' E 013°27'2311.4
2014-Oct-20 06:31N 66°33' E 013°02'1010.3
2014-Oct-20 05:33N 66°23' E 012°59'1511.1
2014-Oct-20 04:14N 66°09' E 012°49'6110.6
2014-Oct-19 22:31N 65°13' E 011°54'1111.5
2014-Oct-19 21:33N 65°03' E 011°44'1010.4
2014-Oct-19 20:33N 64°57' E 011°23'1111.0
2014-Oct-19 19:33N 64°48' E 011°07'7711.0
2014-Oct-19 12:31N 63°47' E 009°18'1111.5
2014-Oct-19 11:33N 63°36' E 009°16'  
2014-Oct-17 02:33N 63°38' E 009°15'1110.6
2014-Oct-17 01:32N 63°48' E 009°17'1511.0
2014-Oct-17 00:08N 64°02' E 009°31'5611.2
2014-Oct-16 19:10N 64°44' E 010°56'711.1
2014-Oct-16 18:33N 64°49' E 011°08'1110.6
2014-Oct-16 17:33N 64°57' E 011°23'1110.7
2014-Oct-16 16:33N 65°03' E 011°44'1111.2
2014-Oct-16 15:33N 65°14' E 011°54'5610.4
2014-Oct-16 10:13N 66°06' E 012°42'1311.0
2014-Oct-16 09:04N 66°17' E 012°55'611.0
2014-Oct-16 08:33N 66°23' E 012°58'1110.3
2014-Oct-16 07:30N 66°33' E 013°03'2310.6
2014-Oct-16 05:18N 66°54' E 013°27'1810.1
2014-Oct-16 03:30N 67°07' E 014°00'1010.8
2014-Oct-16 02:33N 67°16' E 014°13'1110.7
2014-Oct-16 01:34N 67°25' E 014°27'1111.0
2014-Oct-16 00:33N 67°36' E 014°17'1110.3
2014-Oct-15 23:31N 67°47' E 014°16'  

Dump ship's entire track history